Flag for Cyprus Weather past 2 weeks in Paphos, Cyprus

Now
79 °F

Clear.


Feels Like: 82 °F
Forecast: 74 / 91 °F
Wind: 7 mph from North

Location: Paphos Airport

Current Time: Aug 22, 2014 at 3:46:44 AM

Latest Report: Aug 22, 2014 at 3:00 AM


Visibility: 10 mi

Pressure: 29.77 "Hg

Humidity: 89%

Dew point: 75 °F

Location of PaphosLocation

Historic Weather in Paphos — Graph

°F

Paphos temperature yesterday

Maximum temperature yesterday: 90 °F (at 1:30 PM)
Minimum temperature yesterday: 75 °F (at 3:00 AM)
Average temperature yesterday: 82 °F

Past Weeks' High & Low Weather Summary

 TemperatureHumidityPressure
High91 °F (Aug 13, 3:00 PM)94% (Aug 11, 6:00 AM)29.92 "Hg (Aug 11, 6:00 AM)
Low72 °F (Aug 12, 5:30 AM)40% (Aug 15, 8:00 AM)29.56 "Hg (Aug 17, 4:30 PM)
Average82 °F76%29.75 "Hg
* Reported Aug 7 3:00 AM — Aug 22 3:00 AM, Paphos, Weather by CustomWeather, © 2014

Note: Actual official high and low records may vary slightly from our data, if they occured in-between our weather recording intervals... More about our weather records

Advertising

Paphos weather history for previous 24 hours

 ConditionsComfort  
Time TempWeatherWind HumidityBarometerVisibility
3:00 AM
Aug 22
79 °FClear.7 mph89%29.77 "Hg10 mi
2:30 AM79 °FClear.7 mph84%29.80 "Hg10 mi
2:00 AM79 °FClear.7 mph84%29.80 "Hg10 mi
1:30 AM79 °FClear.6 mph84%29.80 "Hg10 mi
1:00 AM79 °FClear.3 mph84%29.80 "Hg10 mi
12:30 AM79 °FClear.1 mph84%29.83 "Hg10 mi
12:00 AM79 °FClear.2 mph84%29.83 "Hg10 mi
11:30 PM
Aug 21
79 °FClear.5 mph84%29.83 "Hg10 mi
11:00 PM81 °FClear.6 mph84%29.83 "Hg10 mi
10:30 PM81 °FClear.3 mph84%29.83 "Hg10 mi
10:00 PM81 °FClear.5 mph84%29.83 "Hg10 mi
9:30 PM82 °FPassing clouds.6 mph79%29.83 "HgN/A
9:00 PM82 °FPassing clouds.6 mph84%29.83 "HgN/A
8:30 PM82 °FScattered clouds.6 mph84%29.83 "HgN/A
8:00 PM84 °FScattered clouds.10 mph79%29.83 "HgN/A
7:30 PM84 °FScattered clouds.10 mph79%29.83 "HgN/A
7:00 PM86 °FScattered clouds.12 mph75%29.83 "HgN/A
6:30 PM86 °FScattered clouds.13 mph75%29.83 "HgN/A
6:00 PM88 °FPassing clouds.13 mph70%29.83 "HgN/A
5:30 PM88 °FPassing clouds.12 mph70%29.83 "HgN/A
5:00 PM88 °FPassing clouds.12 mph70%29.86 "HgN/A
4:30 PM88 °FPassing clouds.12 mph75%29.86 "HgN/A
4:00 PM88 °FPassing clouds.12 mph70%29.86 "HgN/A
3:30 PM88 °FPassing clouds.13 mph70%29.86 "HgN/A
3:00 PM88 °FPassing clouds.12 mph70%29.86 "HgN/A
2:30 PM88 °FPassing clouds.12 mph70%29.86 "HgN/A
2:00 PM88 °FPassing clouds.12 mph70%29.89 "HgN/A
1:30 PM90 °FPassing clouds.13 mph67%29.89 "HgN/A
1:00 PM88 °FScattered clouds.14 mph70%29.89 "HgN/A
12:30 PM88 °FScattered clouds.13 mph70%29.89 "HgN/A
12:00 PM88 °FPassing clouds.12 mph75%29.89 "HgN/A
11:30 AM88 °FPassing clouds.12 mph70%29.89 "HgN/A
11:00 AM88 °FPassing clouds.13 mph70%29.89 "HgN/A
10:30 AM86 °FPassing clouds.9 mph70%29.89 "HgN/A
10:00 AM86 °FPassing clouds.7 mph75%29.89 "HgN/A
9:30 AM86 °FPassing clouds.6 mph70%29.89 "HgN/A
9:00 AM86 °FPassing clouds.6 mph75%29.89 "HgN/A
8:30 AM86 °FPassing clouds.3 mph70%29.89 "HgN/A
8:00 AM82 °FSunny.5 mph66%29.89 "Hg10 mi
7:30 AM79 °FSunny.8 mph65%29.89 "Hg10 mi
7:00 AM77 °FPassing clouds.7 mph65%29.89 "HgN/A
6:30 AM75 °FClear.8 mph65%29.89 "Hg10 mi
6:00 AM75 °FClear.8 mph69%29.89 "Hg10 mi
5:30 AM75 °FMild.7 mph69%29.89 "HgN/A
5:00 AM75 °FMild.7 mph74%29.89 "HgN/A
4:30 AM75 °FMild.9 mph74%29.86 "HgN/A
4:00 AM75 °FMild.5 mph74%29.86 "HgN/A
3:30 AM75 °FMild.5 mph74%29.86 "HgN/A
3:00 AM75 °FClear.6 mph74%29.89 "Hg10 mi
Weather by CustomWeather, © 2014

See weather overviewHow to use our weather pages